User: anonymous   Login
Location: Unspecified
(0.0000°N, 0.0000°E)
Time: 10:03:34
(UTC+00:00)
Language:

TBA - TO BE ASSIGNED - Orbit

View from above orbital plane
View from above orbital plane
View from above satellite
View from above satellite

Ground track
Ground track

The orbit is defined by the following mean orbital elements,

1 67998U          26145.56328888 +.00000000 +00000-0 +72281-3 0 00001
2 67998  43.0023 334.4959 0000487  60.2399 299.8501 15.27594256    08
Epoch (UTC): 25 May 2026 13:31:08
Eccentricity: 0.0000487
inclination: 43.0023°
perigee height: 483 km
apogee height: 483 km
right ascension of ascending node: 334.4959°
argument of perigee: 60.2399°
revolutions per day: 15.27594256
mean anomaly at epoch: 299.8501°

The dashed part of the orbit path shows where the satellite is in the earth's shadow,  

DLR